Meteo pe oră la Abdullino

Astăzi, 3 August, Marţi

Timp Temperatura Precipitaţii Vânt Presiune Umiditate
00:00 +20°C° 0 mm 2 m/s 747 mmHg 68%
01:00 +20°C° 0 mm 2 m/s 747 mmHg 68%
02:00 +19°C° 0 mm 2 m/s 747 mmHg 70%
03:00 +19°C° 0 mm 2 m/s 747 mmHg 71%
04:00 +19°C° 0 mm 2 m/s 747 mmHg 71%
05:00 +20°C° 0 mm 2 m/s 747 mmHg 69%
06:00 +21°C° 0 mm 2 m/s 748 mmHg 66%
07:00 +23°C° 0 mm 1 m/s 748 mmHg 64%
08:00 +25°C° 0 mm 2 m/s 748 mmHg 56%
09:00 +28°C° 0 mm 3 m/s 748 mmHg 48%
10:00 +30°C° 0 mm 3 m/s 748 mmHg 40%
11:00 +31°C° 0 mm 3 m/s 747 mmHg 37%
12:00 +33°C° 0 mm 3 m/s 747 mmHg 34%
13:00 +34°C° 0 mm 3 m/s 747 mmHg 31%
14:00 +34°C° 0 mm 2 m/s 747 mmHg 30%
15:00 +35°C° 0 mm 2 m/s 747 mmHg 29%
16:00 +35°C° 0 mm 2 m/s 746 mmHg 28%
17:00 +32°C° 0 mm 2 m/s 746 mmHg 37%
18:00 +30°C° 0 mm 2 m/s 746 mmHg 46%
19:00 +28°C° 0 mm 1 m/s 746 mmHg 55%
20:00 +26°C° 0 mm 2 m/s 746 mmHg 56%
21:00 +25°C° 0 mm 2 m/s 746 mmHg 57%
22:00 +24°C° 0 mm 2 m/s 746 mmHg 57%
23:00 +23°C° 0 mm 1 m/s 746 mmHg 58%

Mâine, 4 August, Miercuri

Timp Temperatura Precipitaţii Vânt Presiune Umiditate
00:00 +23°C° 0 mm 1 m/s 746 mmHg 58%
01:00 +23°C° 0 mm 1 m/s 746 mmHg 59%
02:00 +22°C° 0 mm 1 m/s 746 mmHg 60%
03:00 +22°C° 0 mm 1 m/s 746 mmHg 61%
04:00 +22°C° 0 mm 1 m/s 746 mmHg 63%
05:00 +23°C° 0 mm 1 m/s 746 mmHg 62%
06:00 +24°C° 0 mm 1 m/s 746 mmHg 61%
07:00 +26°C° 0 mm 1 m/s 746 mmHg 60%
08:00 +28°C° 0 mm 1 m/s 746 mmHg 53%
09:00 +30°C° 0 mm 1 m/s 746 mmHg 45%
10:00 +32°C° 0 mm 2 m/s 746 mmHg 38%
11:00 +35°C° 0 mm 2 m/s 746 mmHg 35%
12:00 +36°C° 0 mm 2 m/s 746 mmHg 32%
13:00 +37°C° 0 mm 2 m/s 746 mmHg 29%
14:00 +37°C° 0 mm 2 m/s 745 mmHg 29%
15:00 +36°C° 0 mm 1 m/s 745 mmHg 28%
16:00 +36°C° 0 mm 1 m/s 744 mmHg 28%
17:00 +31°C° 0.8 mm 1 m/s 745 mmHg 45%
18:00 +27°C° 0.8 mm 1 m/s 745 mmHg 63%
19:00 +21°C° 0.8 mm 2 m/s 746 mmHg 81%
20:00 +21°C° 0 mm 2 m/s 745 mmHg 78%
21:00 +21°C° 0 mm 3 m/s 745 mmHg 75%
22:00 +20°C° 0 mm 3 m/s 745 mmHg 72%
23:00 +21°C° 0 mm 3 m/s 745 mmHg 71%

Poimâine, 5 August, Joi

Timp Temperatura Precipitaţii Vânt Presiune Umiditate
00:00 +21°C° 0 mm 2 m/s 744 mmHg 70%
01:00 +21°C° 0 mm 2 m/s 744 mmHg 69%
02:00 +22°C° 0 mm 1 m/s 744 mmHg 69%
03:00 +21°C° 0 mm 1 m/s 744 mmHg 70%
04:00 +21°C° 0 mm 1 m/s 744 mmHg 71%
05:00 +21°C° 0 mm 1 m/s 744 mmHg 70%
06:00 +22°C° 0 mm 1 m/s 744 mmHg 70%
07:00 +22°C° 0 mm 1 m/s 744 mmHg 69%
08:00 +24°C° 0 mm 2 m/s 745 mmHg 65%
09:00 +25°C° 0 mm 2 m/s 745 mmHg 62%
10:00 +27°C° 0 mm 3 m/s 745 mmHg 58%
11:00 +26°C° 0 mm 3 m/s 745 mmHg 59%
12:00 +26°C° 0 mm 3 m/s 745 mmHg 59%
13:00 +26°C° 0 mm 3 m/s 745 mmHg 60%
14:00 +26°C° 0 mm 3 m/s 745 mmHg 59%
15:00 +26°C° 0 mm 3 m/s 745 mmHg 58%
16:00 +26°C° 0 mm 3 m/s 745 mmHg 57%
17:00 +25°C° 0 mm 3 m/s 746 mmHg 61%
18:00 +24°C° 0 mm 2 m/s 746 mmHg 64%
19:00 +24°C° 0 mm 2 m/s 746 mmHg 68%
20:00 +23°C° 0 mm 2 m/s 746 mmHg 70%
21:00 +21°C° 0 mm 3 m/s 746 mmHg 72%
22:00 +19°C° 0 mm 3 m/s 746 mmHg 74%
23:00 +19°C° 0 mm 3 m/s 747 mmHg 74%

6 August, Vineri

Timp Temperatura Precipitaţii Vânt Presiune Umiditate
00:00 +19°C° 0 mm 2 m/s 747 mmHg 75%
01:00 +18°C° 0 mm 2 m/s 747 mmHg 76%
02:00 +17°C° 0 mm 2 m/s 747 mmHg 81%
03:00 +15°C° 0 mm 1 m/s 747 mmHg 87%
04:00 +14°C° 0 mm 1 m/s 748 mmHg 92%
05:00 +15°C° 0 mm 2 m/s 748 mmHg 86%
06:00 +16°C° 0 mm 2 m/s 748 mmHg 79%
07:00 +17°C° 0 mm 2 m/s 748 mmHg 72%
08:00 +18°C° 0 mm 3 m/s 748 mmHg 63%
09:00 +20°C° 0 mm 3 m/s 749 mmHg 54%
10:00 +21°C° 0 mm 4 m/s 749 mmHg 45%
11:00 +22°C° 0 mm 4 m/s 749 mmHg 42%
12:00 +23°C° 0 mm 4 m/s 749 mmHg 38%
13:00 +25°C° 0 mm 5 m/s 748 mmHg 35%
14:00 +25°C° 0 mm 4 m/s 748 mmHg 34%
15:00 +25°C° 0 mm 4 m/s 748 mmHg 34%
16:00 +25°C° 0 mm 4 m/s 748 mmHg 34%
17:00 +22°C° 0 mm 3 m/s 749 mmHg 41%
18:00 +21°C° 0 mm 3 m/s 749 mmHg 48%
19:00 +19°C° 0 mm 2 m/s 749 mmHg 55%
20:00 +18°C° 0 mm 2 m/s 749 mmHg 60%
21:00 +16°C° 0 mm 1 m/s 749 mmHg 65%
22:00 +14°C° 0 mm 1 m/s 749 mmHg 70%
23:00 +13°C° 0 mm 1 m/s 750 mmHg 74%

7 August, Sâmbătă

Timp Temperatura Precipitaţii Vânt Presiune Umiditate
00:00 +13°C° 0 mm 1 m/s 750 mmHg 77%
01:00 +12°C° 0 mm 1 m/s 750 mmHg 81%
02:00 +12°C° 0 mm 1 m/s 750 mmHg 83%
03:00 +11°C° 0 mm 1 m/s 750 mmHg 85%
04:00 +10°C° 0 mm 0 m/s 750 mmHg 87%
05:00 +13°C° 0 mm 1 m/s 751 mmHg 81%
06:00 +14°C° 0 mm 1 m/s 751 mmHg 74%
07:00 +16°C° 0 mm 1 m/s 751 mmHg 67%
08:00 +17°C° 0 mm 2 m/s 751 mmHg 60%
09:00 +19°C° 0 mm 2 m/s 751 mmHg 54%
10:00 +20°C° 0 mm 3 m/s 751 mmHg 47%
11:00 +21°C° 0 mm 3 m/s 751 mmHg 44%
12:00 +22°C° 0 mm 4 m/s 751 mmHg 41%
13:00 +23°C° 0 mm 4 m/s 751 mmHg 38%
14:00 +23°C° 0 mm 4 m/s 751 mmHg 38%
15:00 +23°C° 0 mm 4 m/s 751 mmHg 38%
16:00 +23°C° 0 mm 4 m/s 751 mmHg 38%
17:00 +22°C° 0 mm 3 m/s 751 mmHg 45%
18:00 +20°C° 0 mm 3 m/s 751 mmHg 51%
19:00 +19°C° 0 mm 2 m/s 752 mmHg 58%
20:00 +17°C° 0 mm 2 m/s 752 mmHg 62%
21:00 +16°C° 0 mm 1 m/s 752 mmHg 67%
22:00 +14°C° 0 mm 1 m/s 752 mmHg 72%
23:00 +13°C° 0 mm 1 m/s 752 mmHg 74%

8 August, Duminică

Timp Temperatura Precipitaţii Vânt Presiune Umiditate
00:00 +13°C° 0 mm 1 m/s 752 mmHg 76%
01:00 +12°C° 0 mm 1 m/s 753 mmHg 78%
02:00 +12°C° 0 mm 1 m/s 753 mmHg 78%
03:00 +11°C° 0 mm 1 m/s 753 mmHg 79%
04:00 +11°C° 0 mm 1 m/s 754 mmHg 79%
05:00 +12°C° 0 mm 1 m/s 754 mmHg 73%
06:00 +14°C° 0 mm 1 m/s 754 mmHg 67%
07:00 +15°C° 0 mm 1 m/s 754 mmHg 61%
08:00 +17°C° 0 mm 2 m/s 754 mmHg 54%
09:00 +19°C° 0 mm 2 m/s 754 mmHg 47%
10:00 +20°C° 0 mm 2 m/s 754 mmHg 40%
11:00 +23°C° 0 mm 2 m/s 754 mmHg 37%
12:00 +24°C° 0 mm 2 m/s 754 mmHg 34%
13:00 +25°C° 0 mm 3 m/s 754 mmHg 32%
14:00 +25°C° 0 mm 3 m/s 754 mmHg 32%
15:00 +25°C° 0 mm 3 m/s 754 mmHg 31%
16:00 +25°C° 0 mm 3 m/s 754 mmHg 31%
17:00 +24°C° 0 mm 2 m/s 754 mmHg 40%
18:00 +21°C° 0 mm 2 m/s 754 mmHg 48%
19:00 +20°C° 0 mm 1 m/s 754 mmHg 56%
20:00 +19°C° 0 mm 1 m/s 754 mmHg 59%
21:00 +16°C° 0 mm 1 m/s 754 mmHg 62%
22:00 +15°C° 0 mm 1 m/s 754 mmHg 64%
23:00 +14°C° 0 mm 1 m/s 754 mmHg 65%
Arată mai mult

Formular de consimțământ

Meteoprog și furnizorii noștri de servicii pot stoca și accesa date personale, precum cookies, identificatori de dispozitiv sau alte tehnologii similare pe dispozitivul dumneavoastră și procesa astfel de date pentru a personaliza conținutul și reclamele, dar și pentru a oferi caracteristici de social media și pentru a analiza traficul.

  • Stocarea și/sau accesarea informațiilor pe dispozitivul dumneavoastră

    Cookies, identificatori de dispozitiv sau alte informații pot fi stocate sau accesate pe dispozitiv în scopurile indicate mai sus.

  • Reclame și conținut personalizat, evaluarea reclamelor și a conținutului, informații despre audiențe și dezvoltarea produselor

    Reclamele și conținutul pot fi personalizate pe baza unui profil. Pot fi adăugate date suplimentare pentru a personaliza mai bine reclamele și conținutul. Performanța reclamelor și conținutului poate fi măsurată. Pot fi obținute informații despre utilizatorii care au văzut reclamele și conținutul. Aceste date pot fi utilizate pentru a dezvolta sau îmbunătăți experiența utilizatorilor, sistemele și software-ul.

Dând clic pe ‘Sunt de acord’, permiteți utilizarea cookie-urilor menționate, a identificatorilor de dispozitiv, balizelor web sau altor tehnologii similare. Setările pot fi modificate din browser-ul dispozitivului dumneavoastră.

În anumite scopuri, interesele legitime pot prima asupra consimțământului. Puteți citi mai multe informații în acest sens în Politica privind Confidențialitatea Datelor și Cookie.